{"data":{"norad_id":55158,"intl_designator":"2023-004U","name":"ONEWEB-0617","alt_names":[],"object_type":"PAYLOAD","status":"ACTIVE","operator":null,"country":"UK","launch_date":"2023-01-10","launch_site_code":"AFETR","launch_vehicle":null,"mission":null,"orbit_class":"UNKNOWN","rcs_meters":null,"size_class":null,"mass_kg":null,"dimensions":null,"purposes":["comms"],"wikipedia_slug":null,"has_3d_model":false,"image_url":null,"decayed_at":null,"tle_current":{"epoch":"2026-09-19T23:31:29.536608Z","epoch_age_seconds":70742,"freshness":"FRESH","line1":"1 55158U 23004U   26262.98020297  .00000021  00000+0  22309-4 0  9990","line2":"2 55158  87.8965   2.2274 0001867 114.2537 245.8786 13.11414563178286","mean_motion":13.11414563,"eccentricity":0.0001867,"inclination_deg":87.8965,"raan_deg":2.2274,"arg_perigee_deg":114.2537,"mean_anomaly_deg":245.8786,"bstar":2.2309e-5,"rev_number":17828,"period_min":109.80509448559,"perigee_km":1216.273754941,"apogee_km":1219.1100374509,"semimajor_km":7595.828896196,"source":"CELESTRAK","updated_at":"2026-09-20T09:00:44.753774Z"}}}